Tracking 32577 objects as of 14-Dec-2025
HD Live streaming from Space Station
objects crossing your sky now

ALOS DEB

Track ALOS DEB now!
10-day predictions


NORAD ID: 35418
Int'l Code: 2006-002Z
Perigee: 621.9 km
Apogee: 624.9 km
Inclination: 98.2 °
Period: 97.0 minutes
Semi major axis: 6994 km
RCS: 0.0242 m2 (small)
Launch date: January 24, 2006
Source: Japan (JPN)
Launch site: TANEGASHIMA SPACE CENTER (TNSTA)

Note: This is SATELLITE DEBRIS
Your satellite tracking list
Your tracking list is empty




NASA's NSSDC Master Catalog

Two Line Element Set (TLE):
1 35418U 06002Z   25347.86288101  .00006012  00000-0  72585-3 0  9993
2 35418  98.1787 325.7056 0002163  86.7408 337.3710 14.84154230  6536
Source of the keplerian elements: AFSPC